ELEKTRO-L 2

Last updated on Mon Oct 14 2024 00:02:17 GMT+0000 (Coordinated Universal Time)

1 41105U 15074A 24287.26066514 -.00000113 00000+0 00000+0 0 9995 2 41105 5.1381 78.0090 0003237 166.7616 216.9471 1.00270963 32376
UTC large
Height (km)
Speed (km/s)
/
Latitude / Longitude
Inclination (degrees)
Orbital Period (minutes)
Azimuth
Elevation
Range (km)
Doppler Factor

Next 0 passes for location: London (51.5072 / 0.1276)

Sorry there are no passes over London.